This demonstration page uses our WeatherBlox Daily Observations layout. Learn more.

Left ArrowRight Arrow

Hourly Observations for August 12, 2021

Temp ( °F °C ) Dew Point ( °F °C ) Humidity (%) Winds ( mph kmh ) Pressure ( in mb ) Visibility ( mi km ) Precip ( " mm )
12:59 am 00:59 Mostly Cloudy 83 28.3 76 24.4 79 79 SSW 7 11 30.09 1019 7 11 0.00 0.00
1:59 am 01:59 Partly Cloudy 82 27.8 76 24.4 82 82 SSW 9 15 30.07 1018 7 11 0.00 0.00
2:59 am 02:59 Clear 81 27.2 75 23.9 82 82 SSW 8 13 30.06 1018 8 13 0.00 0.00
3:59 am 03:59 Mostly Clear 81 27.2 75 23.9 82 82 SSW 10 17 30.06 1018 8 13 0.00 0.00
4:59 am 04:59 Mostly Clear 80 26.7 74 23.3 82 82 SW 8 13 30.06 1018 8 13 0.00 0.00
5:59 am 05:59 Mostly Clear 79 26.1 74 23.3 85 85 SW 6 9 30.08 1019 8 13 0.00 0.00
6:59 am 06:59 Hazy 79 26.1 74 23.3 85 85 SW 6 9 30.10 1019 6 10 0.00 0.00
7:59 am 07:59 Hazy 81 27.2 74 23.3 79 79 WSW 7 11 30.11 1020 6 10 0.00 0.00
8:59 am 08:59 Partly Cloudy 83 28.3 74 23.3 74 74 SW 6 9 30.11 1020 7 11 0.00 0.00
9:59 am 09:59 Partly Cloudy 86 30 73 22.8 65 65 SSW 7 11 30.11 1020 7 11 0.00 0.00
10:59 am 10:59 Partly Cloudy 89 31.7 74 23.3 61 61 S 8 13 30.12 1020 7 11 0.00 0.00
11:59 am 11:59 Partly Cloudy 91 32.8 75 23.9 59 59 VRB 7 11 30.12 1020 7 11 0.00 0.00
12:59 pm 12:59 Mostly Cloudy 93 33.9 74 23.3 54 54 WSW 9 15 30.11 1020 8 13 0.00 0.00
1:59 pm 13:59 Mostly Cloudy 94 34.4 75 23.9 54 54 W 10 17 30.09 1019 8 13 0.00 0.00
2:59 pm 14:59 Mostly Cloudy 95 35 74 23.3 51 51 SW 7 11 30.07 1018 8 13 0.00 0.00
3:59 pm 15:59 Mostly Cloudy 94 34.4 75 23.9 54 54 W 12 19 30.05 1018 8 13 0.00 0.00
4:59 pm 16:59 Mostly Cloudy 94 34.4 75 23.9 54 54 W 8 13 30.05 1018 8 13 0.00 0.00
5:59 pm 17:59 Mostly Cloudy 93 33.9 75 23.9 56 56 SW 10 17 30.04 1017 8 13 0.00 0.00
6:59 pm 18:59 Mostly Cloudy 92 33.3 75 23.9 58 58 SW 8 13 30.04 1017 7 11 0.00 0.00
7:59 pm 19:59 Partly Cloudy 90 32.2 75 23.9 62 62 SSW 8 13 30.04 1017 7 11 0.00 0.00
8:59 pm 20:59 Partly Cloudy 88 31.1 76 24.4 68 68 S 9 15 30.03 1017 8 13 0.00 0.00
9:59 pm 21:59 Mostly Clear 87 30.6 75 23.9 67 67 S 7 11 30.06 1018 8 13 0.00 0.00
10:59 pm 22:59 Clear 85 29.4 76 24.4 75 75 SSW 9 15 30.07 1018 8 13 0.00 0.00
11:59 pm 23:59 Clear 84 28.9 76 24.4 77 77 SSW 7 11 30.09 1019 8 13 0.00 0.00

Powered by AerisWeather